TimeHST,TemperatureF,Dew PointF,Humidity,Sea Level PressureIn,VisibilityMPH,Wind Direction,Wind SpeedMPH,Gust SpeedMPH,PrecipitationIn,Events,Conditions,WindDirDegrees,DateUTC
12:53 AM,78.1,69.1,74,29.92,10.0,Calm,Calm,-,N/A,,Mostly Cloudy,0,2012-10-24 10:53:00
1:53 AM,78.1,68.0,71,29.91,10.0,Calm,Calm,-,N/A,,Mostly Cloudy,0,2012-10-24 11:53:00
2:53 AM,77.0,69.1,76,29.88,10.0,NNW,4.6,-,N/A,,Scattered Clouds,340,2012-10-24 12:53:00
3:53 AM,73.9,68.0,82,29.87,10.0,Calm,Calm,-,N/A,,Partly Cloudy,0,2012-10-24 13:53:00
4:53 AM,73.9,68.0,82,29.87,10.0,Calm,Calm,-,N/A,,Partly Cloudy,0,2012-10-24 14:53:00
5:53 AM,75.0,68.0,79,29.88,10.0,Calm,Calm,-,N/A,,Partly Cloudy,0,2012-10-24 15:53:00
6:53 AM,75.0,68.0,79,29.89,10.0,Calm,Calm,-,N/A,,Scattered Clouds,0,2012-10-24 16:53:00
7:53 AM,77.0,68.0,74,29.91,10.0,Calm,Calm,-,N/A,,Scattered Clouds,0,2012-10-24 17:53:00
8:53 AM,80.1,69.1,69,29.91,10.0,Calm,Calm,-,N/A,,Scattered Clouds,0,2012-10-24 18:53:00
9:53 AM,82.0,71.1,69,29.91,10.0,SSE,6.9,-,N/A,,Scattered Clouds,150,2012-10-24 19:53:00
10:53 AM,82.9,70.0,65,29.91,10.0,SSE,11.5,-,N/A,,Scattered Clouds,150,2012-10-24 20:53:00
11:53 AM,82.0,71.1,69,29.88,10.0,SSE,10.4,-,N/A,,Mostly Cloudy,160,2012-10-24 21:53:00
12:53 PM,81.0,71.1,72,29.86,9.0,SSE,9.2,-,N/A,,Haze,150,2012-10-24 22:53:00
1:53 PM,81.0,72.0,74,29.85,9.0,SE,5.8,-,N/A,,Mostly Cloudy,140,2012-10-24 23:53:00
2:53 PM,81.0,71.1,72,29.84,10.0,South,5.8,-,N/A,,Mostly Cloudy,180,2012-10-25 00:53:00
3:53 PM,80.1,70.0,71,29.84,10.0,Calm,Calm,-,N/A,,Scattered Clouds,0,2012-10-25 01:53:00
4:53 PM,79.0,71.1,77,29.85,10.0,Calm,Calm,-,N/A,,Scattered Clouds,0,2012-10-25 02:53:00
5:53 PM,79.0,70.0,74,29.85,10.0,SSE,3.5,-,N/A,,Scattered Clouds,160,2012-10-25 03:53:00
6:53 PM,79.0,70.0,74,29.87,10.0,SSE,3.5,-,N/A,,Scattered Clouds,150,2012-10-25 04:53:00
7:53 PM,79.0,71.1,77,29.89,10.0,SE,5.8,-,N/A,,Scattered Clouds,130,2012-10-25 05:53:00
8:34 PM,78.8,71.6,78,29.91,10.0,SE,4.6,-,N/A,,Mostly Cloudy,140,2012-10-25 06:34:00
8:51 PM,78.8,71.6,78,29.91,10.0,Calm,Calm,-,N/A,,Scattered Clouds,0,2012-10-25 06:51:00
8:53 PM,79.0,71.1,77,29.91,10.0,Calm,Calm,-,N/A,,Scattered Clouds,0,2012-10-25 06:53:00
9:53 PM,79.0,71.1,77,29.93,10.0,Calm,Calm,-,N/A,,Scattered Clouds,0,2012-10-25 07:53:00
10:53 PM,78.1,72.0,81,29.93,10.0,Variable,4.6,-,N/A,,Scattered Clouds,0,2012-10-25 08:53:00
11:53 PM,77.0,71.1,82,29.92,10.0,Calm,Calm,-,N/A,,Scattered Clouds,0,2012-10-25 09:53:00